Lapse_Rate
5.8 5.8 5.6 5.5 5.7 5.7 5.7 5.8 5.8 5.8 5.7 5.7 5.6 5.5 5.5 5.4 5.4 5.3 5.3 5.4 5.5 5.7 5.9 6.0 6.1 6.1 6.1 6.2 6.2 6.2 6.1 6.1 6.0
5.7 5.6 5.7 5.6 5.5 5.7 5.7 5.7 5.9 6.0 5.9 5.8 5.8 5.7 5.6 5.6 5.5 5.4 5.3 5.3 5.4 5.5 5.7 5.8 6.0 6.0 6.0 6.0 6.1 6.1 6.0 6.0 5.9
5.5 5.5 5.6 5.6 5.6 5.6 5.5 5.5 5.7 5.8 6.0 6.0 5.9 5.8 5.7 5.6 5.5 5.4 5.4 5.4 5.3 5.4 5.5 5.6 5.6 5.7 5.8 5.9 5.9 5.8 5.8 5.8 5.8
5.5 5.4 5.4 5.6 5.6 5.7 5.6 5.7 5.6 5.7 5.8 6.0 6.0 5.9 5.7 5.6 5.6 5.6 5.4 5.3 5.3 5.4 5.4 5.4 5.5 5.5 5.5 5.5 5.7 5.7 5.7 5.7 5.7
5.5 5.4 5.5 5.5 5.6 5.6 5.6 5.7 5.7 5.7 5.6 5.7 5.9 6.0 5.8 5.8 5.7 5.6 5.5 5.5 5.5 5.5 5.5 5.5 5.4 5.5 5.5 5.5 5.5 5.5 5.5 5.5 5.5
5.5 5.5 5.6 5.6 5.6 5.7 5.8 5.7 5.6 5.6 5.7 5.7 5.8 5.8 5.7 5.7 5.8 5.9 5.9 5.7 5.6 5.6 5.7 5.7 5.7 5.7 5.6 5.6 5.6 5.5 5.5 5.4 5.4
5.6 5.5 5.5 5.5 5.6 5.7 5.7 5.8 5.8 5.7 5.5 5.6 5.9 5.9 5.8 5.7 5.6 5.8 6.0 6.0 6.0 5.8 5.7 5.7 5.7 5.7 5.7 5.7 5.7 5.6 5.6 5.6 5.5
5.7 5.6 5.5 5.5 5.6 5.6 5.6 5.7 5.7 5.8 5.6 5.6 5.7 5.9 5.9 5.9 5.8 5.8 5.9 6.0 6.1 6.2 6.1 6.0 5.8 5.9 5.8 5.8 5.8 5.8 5.7 5.7 5.6
6.0 5.8 5.7 5.5 5.6 5.6 5.7 5.6 5.7 5.7 5.7 5.8 5.8 5.8 5.9 6.0 5.9 5.9 5.9 5.9 6.1 6.2 6.3 6.2 6.0 5.8 5.9 5.9 5.9 5.8 5.9 5.9 5.9
5.8 5.7 5.8 5.8 5.5 5.4 5.5 5.6 5.6 5.6 5.6 5.6 5.8 5.9 6.0 6.0 6.0 6.1 6.0 6.0 5.9 6.0 6.1 6.2 6.2 6.0 5.8 5.8 6.0 6.1 5.8 5.8 5.8
5.3 5.6 5.5 5.7 5.7 5.5 5.4 5.5 5.6 5.6 5.6 5.7 5.8 5.9 5.9 5.8 5.8 5.8 5.9 6.0 6.0 5.9 5.8 5.8 5.9 5.8 5.7 5.6 5.6 5.6 5.7 5.8 5.8
5.7 5.4 5.4 5.6 5.5 5.6 5.3 5.4 5.5 5.6 5.6 5.9 6.1 5.9 5.7 5.8 5.9 6.0 6.1 6.1 6.0 6.0 6.0 5.8 5.6 5.7 5.6 5.6 5.6 5.6 5.5 5.4 5.4
5.6 5.6 5.5 5.4 5.3 5.6 5.9 5.9 5.6 5.7 5.7 6.0 6.0 6.0 5.7 5.5 6.0 6.0 6.1 6.2 6.1 6.0 6.1 5.7 5.6 5.7 5.8 5.9 5.9 5.7 5.7 5.6 5.5
5.5 5.5 5.6 5.7 5.6 5.2 6.0 6.2 6.1 6.0 6.1 5.9 5.8 5.9 5.7 5.8 5.8 5.9 6.1 6.3 6.4 6.2 6.3 6.2 6.1 5.9 5.9 5.9 5.8 5.8 5.8 5.8 5.6
5.2 5.3 5.5 5.8 5.8 5.8 5.9 6.0 6.0 6.5 6.2 6.2 5.9 5.7 5.9 5.8 5.5 5.6 6.1 6.4 6.4 6.3 6.2 6.2 6.1 6.0 6.0 5.9 5.9 5.9 5.7 5.7 5.6
4.8 4.9 5.4 6.0 6.1 6.3 6.0 5.9 6.4 6.3 6.2 6.0 6.0 5.8 5.9 5.8 5.8 5.6 6.0 6.1 6.1 6.2 6.2 6.2 6.1 6.0 5.9 5.8 5.8 5.8 5.8 5.7 5.6
4.8 4.8 5.3 5.8 6.2 6.5 6.5 6.5 6.3 6.2 6.0 6.2 6.0 5.8 5.9 5.6 5.7 6.1 6.0 6.1 6.0 6.1 6.1 6.1 6.1 6.1 5.9 5.9 5.9 5.9 6.0 5.8 5.8
6.2 6.2 6.2 6.2 6.3 6.6 6.6 6.8 6.6 6.2 6.1 6.0 5.5 5.7 5.7 6.0 6.0 5.9 6.0 5.9 5.8 5.9 5.9 6.1 6.0 5.9 5.8 5.9 6.0 6.0 5.8 5.8 5.6
6.8 6.6 6.5 6.6 6.6 6.5 6.7 6.8 6.5 6.9 6.0 6.0 5.5 5.1 5.4 5.6 5.9 5.4 5.5 5.3 5.9 5.8 6.1 6.2 6.1 6.0 5.9 5.9 5.9 5.8 5.8 6.0 5.8
6.6 6.9 6.9 7.0 6.9 6.9 6.7 6.6 6.6 6.6 6.0 5.7 5.0 5.0 5.1 5.4 5.6 6.0 5.6 5.8 6.0 6.1 6.3 6.2 6.0 5.9 5.7 5.6 5.6 5.6 5.3 5.3 5.3
Wind_Speed
11 11 9 6 10 10 11 10 11 12 13 13 12 10 7 5 6 5 5 4 4 5 6 7 7 6 6 7 6 6 6 6 6
11 11 10 8 11 13 13 12 12 12 13 13 12 10 7 5 6 7 6 4 4 6 7 6 6 6 6 6 5 5 6 5 5
12 12 12 11 12 15 15 14 13 14 14 14 13 11 8 6 6 7 6 6 6 6 6 7 6 6 6 5 5 5 5 4 4
14 13 13 14 14 16 16 16 16 16 16 15 15 13 11 6 5 7 7 8 8 7 7 7 7 6 6 6 5 5 5 4 4
16 16 16 16 16 18 17 16 15 14 16 14 14 12 11 9 8 7 9 9 10 9 9 8 8 8 8 7 7 7 6 6 5
14 16 16 17 17 18 18 18 17 15 13 13 13 13 12 10 9 8 9 11 12 12 11 10 9 9 9 9 9 9 8 8 7
12 14 19 19 19 19 19 19 19 16 13 12 13 13 13 12 11 10 10 11 14 14 14 14 13 12 12 12 11 11 11 10 10
10 10 11 13 16 15 16 17 18 17 14 13 12 13 13 12 11 12 12 12 13 14 16 15 15 14 14 14 14 13 13 13 12
7 6 10 11 12 13 15 13 16 17 17 16 14 14 12 11 11 11 13 13 14 16 15 17 16 17 16 16 16 15 15 15 15
7 7 9 8 10 12 11 12 11 13 16 17 15 13 14 14 12 11 15 16 15 16 17 18 18 19 19 18 18 18 18 18 18
6 7 7 7 10 12 12 10 10 10 12 13 14 12 14 15 14 13 13 17 18 18 19 19 20 19 20 20 20 18 19 21 22
10 8 7 8 10 10 9 10 9 8 8 13 12 12 13 13 13 13 11 12 17 20 21 21 20 21 21 22 20 20 21 21 22
11 8 8 10 9 6 6 6 7 7 7 8 9 7 8 11 14 13 13 12 12 12 18 20 22 21 22 23 24 23 23 23 23
10 7 7 11 5 5 4 5 6 6 7 7 6 8 8 9 9 9 11 12 12 11 13 18 20 20 20 23 25 25 26 26 25
11 8 9 8 6 5 3 4 4 5 5 5 6 7 7 7 7 7 9 10 11 11 12 12 14 18 19 21 23 25 26 26 26
10 8 8 7 8 8 7 4 5 4 4 3 3 3 6 7 6 5 6 7 9 11 12 11 13 14 18 21 23 24 25 24 23
8 8 8 8 6 8 6 7 3 5 7 3 2 4 3 2 3 4 4 5 5 5 9 11 13 14 15 17 19 21 23 24 24
11 8 7 7 6 7 6 7 5 4 2 2 2 3 2 1 1 3 3 3 4 6 8 11 14 15 16 17 17 21 21 23 23
8 7 6 5 3 3 4 4 4 3 3 3 5 7 3 2 1 1 0 2 6 7 8 9 14 16 15 17 20 22 21 20 23
8 2 3 4 3 4 6 5 6 6 3 3 3 1 2 1 2 6 6 4 5 8 9 11 10 15 14 13 14 16 18 21 22
Wind_Direction
223 224 223 235 199 179 165 160 159 163 169 171 170 174 186 210 204 189 175 179 167 152 148 148 145 137 134 130 128 126 120 117 107
236 228 231 226 199 190 183 179 176 177 180 181 181 179 182 192 189 194 195 201 196 170 168 167 164 156 151 145 145 142 139 132 126
248 234 226 228 219 204 195 188 190 188 188 192 189 182 186 187 191 194 202 217 229 194 189 188 185 180 174 169 167 165 157 150 145
254 247 232 229 225 220 209 199 196 196 200 201 188 192 191 197 201 209 214 219 232 212 207 206 207 205 200 193 191 191 188 181 180
259 252 243 234 237 229 219 213 207 209 206 194 192 192 200 212 204 209 221 230 237 241 215 223 222 220 217 214 211 211 212 208 207
265 254 245 243 241 232 220 214 214 215 217 215 209 200 213 215 222 226 223 224 229 244 230 220 234 235 232 229 229 226 227 228 227
271 266 254 246 244 236 225 217 217 217 221 223 223 222 219 218 220 223 227 234 233 234 248 222 221 231 236 235 236 236 236 236 236
277 266 257 246 242 241 235 228 226 221 218 216 218 224 225 225 224 227 225 233 237 238 242 250 232 228 231 237 239 239 243 244 242
263 254 255 252 243 234 234 230 227 225 223 222 221 220 222 225 228 232 227 234 241 244 247 248 245 236 234 234 238 241 241 244 247
275 257 249 239 239 235 233 231 231 229 227 226 224 223 224 226 228 235 233 234 238 244 250 252 253 247 239 239 236 232 234 239 241
277 274 258 242 230 236 232 226 224 227 226 225 223 223 228 231 230 236 243 237 237 241 244 248 250 250 250 243 245 238 236 233 237
269 269 261 255 231 230 234 233 224 219 219 228 222 222 225 234 234 240 245 250 242 240 244 247 247 246 249 252 251 246 241 240 240
269 261 264 266 236 226 225 218 213 216 216 218 220 214 221 229 240 240 242 249 256 255 250 248 249 249 249 252 253 254 252 243 239
264 258 254 257 233 218 221 218 213 208 218 213 216 214 220 228 229 236 243 246 249 256 263 255 251 251 251 258 260 262 259 255 250
271 256 251 251 241 221 184 210 213 229 212 202 215 209 215 224 230 240 247 249 249 252 258 270 271 267 259 261 265 268 268 265 259
274 259 249 245 234 212 216 203 225 226 210 151 220 221 221 224 226 235 249 263 266 265 266 267 269 273 263 256 257 262 265 267 265
273 253 247 243 236 236 204 215 210 215 189 199 145 189 169 209 211 218 228 250 267 271 275 276 273 272 271 264 252 253 265 270 270
282 259 240 238 231 229 198 215 199 194 217 270 239 155 184 188 143 168 189 244 262 274 278 272 273 272 272 270 269 260 254 265 274
271 259 252 224 197 218 177 171 148 147 189 136 39 34 69 67 283 99 262 274 290 292 288 283 279 274 270 268 265 264 263 268 279
345 291 141 137 126 118 131 118 105 104 130 92 101 65 14 253 257 291 284 273 278 298 301 298 293 292 294 292 301 285 281 292 292